Theta_e
320 320 322 320 323 323 324 332 326 323 328 321 316 322 319 318 323 318 318 319 318 317 316 319 322 320 320 322 324 328 325 328 327 319 321 329 333 334 334 335 334 336 340 340 340 344 343 344 344 343 342 338 337 335 334 335 336 337 337 338 338 338 338 338 338 335 333 331 330 334 337 337 336 336 336 335 335 335 336 336 335 333 329 326 325 325 324 323 320 315 307 304 305 306 307 311 316
320 320 322 322 323 323 326 333 330 326 328 318 314 321 318 320 321 318 320 318 319 317 319 325 326 324 325 325 326 332 329 330 326 319 328 331 332 336 337 338 337 336 340 341 340 343 343 343 344 344 342 339 337 336 335 335 336 338 338 338 338 338 337 337 336 333 329 327 327 332 336 337 337 336 336 335 334 334 334 335 334 333 329 326 326 326 323 322 319 312 305 302 301 302 306 308 310
320 321 322 323 323 324 335 333 326 326 326 318 316 321 319 319 319 321 322 317 318 317 319 322 323 320 321 328 327 330 328 331 332 327 331 331 332 338 340 340 338 340 342 341 340 343 343 343 344 343 343 340 338 337 336 336 338 339 339 339 336 336 337 337 335 331 328 325 325 328 333 336 336 336 336 335 334 333 333 334 334 334 329 327 327 325 323 321 318 310 303 300 300 304 312 314 313
320 321 322 324 325 332 351 339 329 330 322 320 319 321 325 323 321 323 322 319 317 316 317 317 321 316 319 329 322 324 327 328 332 332 332 329 333 338 340 341 340 342 342 341 340 342 343 343 344 343 343 341 338 338 337 337 338 339 340 339 336 335 336 337 334 331 329 326 324 325 330 334 335 335 335 335 334 332 331 333 334 333 329 328 329 325 323 321 317 309 302 300 299 307 317 319 318
321 323 320 323 327 331 341 330 332 334 320 323 321 322 331 328 323 323 321 318 315 316 317 318 321 317 322 327 321 326 326 323 326 330 332 330 334 336 339 342 341 343 342 341 339 342 343 343 344 343 343 341 340 338 337 337 337 338 339 339 338 336 335 336 333 331 331 328 326 325 328 333 334 334 335 334 333 331 331 332 332 330 328 330 328 325 323 321 317 308 302 300 299 306 318 320 321
322 322 320 321 320 321 327 321 323 327 321 325 322 322 329 325 323 323 318 313 314 316 318 322 322 323 331 327 324 330 327 326 328 330 331 333 336 336 339 341 342 343 341 341 339 341 343 343 344 343 343 342 341 339 338 337 336 336 337 338 338 336 336 337 334 331 330 330 329 327 327 330 332 332 333 333 332 331 330 331 331 327 328 330 327 324 323 320 315 308 302 300 299 303 315 320 319
321 321 327 330 323 322 328 322 320 322 318 320 324 323 322 323 321 319 316 314 316 317 319 324 324 326 330 323 323 328 328 330 330 331 332 335 337 337 339 340 343 342 341 341 338 340 343 343 343 343 343 342 342 339 338 338 337 335 335 337 337 336 336 337 336 334 332 330 330 328 325 325 327 329 331 332 332 331 330 331 331 327 329 330 326 324 323 319 315 309 303 300 300 300 309 317 319
321 322 331 340 333 331 333 323 320 323 317 314 320 322 322 323 319 316 316 316 315 316 318 320 321 323 321 321 328 327 326 330 331 333 332 336 338 337 339 340 343 342 342 341 338 340 342 343 343 343 343 343 342 340 339 338 337 336 335 336 338 337 335 336 336 335 335 332 331 329 326 323 323 325 328 330 331 331 332 333 331 329 329 330 326 325 322 319 315 310 304 300 300 300 302 311 317
319 321 329 336 330 332 332 320 317 319 317 315 316 320 322 319 315 316 317 315 314 315 316 315 316 318 321 327 332 323 324 329 332 333 333 338 339 337 339 341 343 342 342 341 339 340 341 343 342 343 343 343 343 341 340 339 338 337 336 335 336 337 336 337 336 335 335 334 333 331 327 324 323 325 328 330 331 332 333 333 332 329 330 330 326 325 323 319 316 311 305 300 300 301 302 306 311
319 321 328 334 328 325 323 318 321 320 316 318 316 318 320 316 314 315 316 314 314 317 316 315 318 320 322 329 327 318 319 327 331 333 333 338 340 338 339 341 344 342 342 341 340 340 341 342 342 343 342 342 342 342 341 339 338 337 336 335 335 335 336 337 336 335 335 334 334 331 329 328 325 325 328 331 332 332 333 334 332 329 330 330 327 325 323 320 318 313 307 301 300 301 304 306 308
325 329 337 341 331 323 320 319 322 322 317 318 317 318 319 316 316 316 316 315 314 318 316 316 323 323 321 323 323 315 314 324 330 331 332 336 341 340 339 342 344 342 342 342 340 340 342 342 342 342 342 343 342 342 342 340 339 337 337 335 335 335 336 337 336 335 335 335 334 332 332 332 329 327 330 331 332 333 333 334 332 330 330 330 327 325 323 321 319 315 309 302 300 301 303 306 308
324 332 348 344 330 327 327 322 319 322 318 317 316 316 317 315 316 316 317 317 315 317 315 314 320 322 321 320 319 312 311 321 328 330 330 333 339 341 340 342 343 342 342 343 344 342 342 342 341 342 341 342 342 342 342 341 340 338 337 336 336 335 335 336 336 335 335 335 335 334 333 334 332 331 332 331 331 333 333 334 332 331 331 330 328 325 324 322 320 316 310 304 300 300 302 305 307
330 334 351 330 321 329 327 321 320 322 318 318 318 314 314 314 317 318 317 317 316 317 314 311 315 320 322 319 316 310 310 320 328 331 329 330 337 340 341 341 343 343 342 343 344 342 342 342 342 342 340 339 341 342 341 341 340 339 338 337 335 335 335 336 336 336 335 335 335 335 334 333 333 333 333 332 332 332 333 333 333 332 331 330 328 326 324 322 321 318 313 309 305 302 301 303 305
329 339 353 325 316 325 322 320 321 319 319 322 321 316 315 314 318 318 317 318 316 316 312 308 312 319 319 316 317 315 311 318 328 331 327 329 334 337 340 340 342 343 342 342 342 342 342 341 341 342 341 341 340 340 341 341 340 339 339 338 336 335 335 336 336 336 335 335 335 335 334 333 333 333 333 333 333 332 333 332 333 333 331 330 328 326 324 323 323 321 318 316 313 309 306 302 301
322 336 347 327 317 321 320 321 322 319 321 323 317 316 317 314 315 316 317 319 315 312 311 309 311 315 317 318 321 318 312 315 325 329 327 329 332 335 336 337 340 340 341 340 341 341 340 338 337 339 339 339 339 340 341 340 339 340 339 339 338 336 336 336 335 335 336 335 335 335 334 334 333 333 334 334 333 333 333 333 333 333 332 331 329 327 325 324 323 322 321 320 319 317 314 310 305
326 338 340 328 319 318 319 320 321 321 322 324 315 315 317 313 314 315 313 314 314 312 313 314 312 312 315 318 316 312 311 315 323 327 326 327 329 331 332 334 336 336 337 337 337 336 336 336 336 338 337 337 340 341 341 339 339 339 339 339 338 337 336 336 336 335 336 335 335 335 334 334 333 332 333 334 334 333 333 333 333 333 332 331 330 327 325 324 324 324 323 322 321 320 319 317 313
335 343 341 328 319 318 319 319 320 322 325 324 317 316 319 315 314 313 310 313 317 315 315 314 310 309 312 313 311 310 312 316 324 326 323 323 323 324 327 328 330 331 333 333 334 333 332 334 336 337 336 337 340 340 339 338 339 340 339 339 339 338 337 337 336 336 335 335 334 333 333 334 333 332 332 333 334 333 333 333 333 333 332 331 330 328 326 325 325 325 325 324 323 322 321 319 317
345 343 336 323 318 319 320 323 320 321 324 320 316 318 320 318 316 313 312 316 317 314 315 313 311 309 309 311 311 313 314 317 324 323 319 318 318 319 320 321 324 327 328 330 331 332 331 331 334 335 336 337 338 338 337 337 339 340 338 338 339 338 338 337 337 336 335 334 333 332 332 332 333 332 331 332 333 333 333 333 333 333 332 331 330 328 327 326 326 325 325 325 324 323 322 320 318
343 341 333 324 325 322 319 323 319 317 319 318 318 317 317 318 317 314 314 317 314 315 316 313 315 313 311 312 312 314 314 318 323 320 317 316 316 316 316 317 318 320 322 324 326 329 331 331 331 333 334 336 337 337 337 337 338 337 337 337 337 337 337 337 337 336 335 334 334 332 332 331 332 332 331 331 332 333 333 333 333 332 332 331 330 329 327 326 326 325 325 325 325 324 323 321 320
330 337 332 324 329 323 316 320 320 318 318 318 318 315 316 316 315 314 315 318 315 318 321 316 319 319 315 313 311 313 314 317 321 319 315 314 315 315 315 315 315 316 317 318 320 322 327 329 330 331 333 335 335 335 336 337 336 336 337 335 335 337 337 337 337 336 336 336 335 334 333 331 331 333 333 332 333 333 333 333 332 331 331 331 330 329 328 327 326 326 325 325 325 324 323 321 320
321 329 328 322 323 320 317 318 318 317 316 320 319 315 317 315 314 315 316 319 317 320 322 320 323 322 318 314 310 312 313 314 316 316 314 313 314 314 314 315 314 315 315 315 316 316 320 325 329 330 332 334 334 334 335 337 337 337 336 334 335 336 337 337 336 336 336 336 336 335 334 333 333 335 334 333 333 333 333 332 332 331 331 331 330 330 328 327 326 326 325 325 324 324 323 321 321
320 319 319 320 319 316 317 318 316 316 316 319 319 315 316 314 314 317 317 319 320 319 317 318 321 318 315 313 310 310 311 311 312 312 312 312 312 313 314 314 314 314 314 314 314 314 315 318 325 328 330 332 333 333 335 337 337 335 335 336 336 335 337 338 336 337 336 336 335 335 335 334 334 335 334 334 334 333 333 333 332 332 332 331 330 330 328 327 327 327 325 324 324 323 322 321 320
322 318 316 319 319 316 318 319 317 318 319 319 318 315 316 315 316 316 316 319 318 313 312 313 313 311 310 310 309 312 311 309 310 311 311 312 312 313 313 313 313 313 313 313 313 315 314 314 319 324 329 331 332 334 335 336 335 334 336 338 337 335 336 337 336 336 335 334 335 334 334 334 334 334 333 333 334 333 333 332 332 332 332 331 330 330 329 327 328 328 326 323 323 323 322 321 320
326 321 316 317 317 317 319 319 319 320 321 319 317 314 315 318 316 313 314 319 316 308 306 306 307 307 308 310 310 311 310 308 310 311 311 312 312 312 312 312 313 313 312 311 313 315 316 315 315 321 327 331 332 333 334 334 333 333 336 337 336 336 336 335 335 335 334 334 335 335 333 333 334 333 332 333 333 332 332 331 330 331 331 330 330 330 329 329 329 329 326 323 323 323 323 322 321
325 319 318 318 317 318 319 319 320 321 319 316 316 316 318 319 315 312 318 320 313 307 306 305 306 308 310 314 312 307 307 308 310 310 310 311 311 311 312 312 311 311 311 311 313 315 316 317 315 317 325 330 332 333 333 334 334 335 335 334 334 335 335 333 334 333 333 333 333 334 333 333 333 332 332 331 332 331 331 330 330 330 330 330 330 330 330 329 329 328 325 323 323 323 322 322 322
320 319 320 319 317 318 318 318 321 320 317 316 316 318 318 316 313 314 321 318 309 308 309 309 310 312 313 315 311 305 306 307 308 309 310 310 311 311 312 311 310 310 312 312 313 315 317 318 317 317 323 329 331 332 333 334 334 335 334 332 332 333 333 333 333 333 332 332 332 332 332 332 332 331 331 330 330 330 330 330 329 328 329 329 329 329 329 328 328 326 324 323 323 323 322 322 322
318 320 319 319 320 320 317 317 319 317 316 316 316 319 318 314 314 316 319 312 308 312 312 310 313 315 314 314 310 306 306 307 308 309 308 309 310 311 311 310 310 311 313 313 314 316 318 320 320 320 325 329 331 332 333 332 332 333 333 331 331 332 332 332 332 332 332 332 332 332 332 332 331 330 329 329 330 329 328 328 327 327 327 327 328 328 327 326 326 325 323 323 323 322 321 320 320
316 319 318 320 323 321 318 317 317 315 315 316 316 317 317 313 314 318 316 309 308 314 313 310 313 314 312 312 310 306 306 307 308 308 308 308 310 311 311 310 310 312 313 314 316 317 320 323 323 324 327 329 331 332 331 331 331 332 332 330 330 331 330 331 332 331 331 331 331 331 331 331 331 329 328 328 328 327 327 327 327 326 326 325 326 325 325 325 324 324 323 322 322 321 321 320 319
316 318 318 324 328 323 318 317 316 315 315 317 316 316 318 315 315 318 313 308 309 313 313 311 312 313 312 311 309 306 305 306 306 306 308 308 310 311 310 310 310 312 314 315 317 318 321 324 325 326 327 329 330 331 331 331 330 330 330 329 329 329 329 330 331 330 330 330 328 329 330 329 329 328 327 327 327 326 326 326 325 325 324 324 324 324 324 324 323 323 321 321 320 320 319 318 317
317 318 318 324 328 325 318 314 315 314 316 317 316 318 327 325 319 316 309 307 310 312 312 311 311 312 311 310 310 309 305 304 305 306 308 309 310 311 310 311 311 312 314 315 317 320 321 323 325 325 326 327 329 330 330 329 329 329 329 328 328 328 329 330 329 328 327 327 327 327 327 327 327 326 326 325 325 325 325 324 324 323 322 322 322 322 322 322 321 321 319 319 319 318 317 315 315
320 315 323 327 321 328 326 315 316 315 314 315 315 318 325 326 322 316 308 307 311 313 312 310 310 310 310 310 309 310 305 302 304 306 307 308 310 312 310 311 312 313 315 316 317 320 321 322 324 325 325 326 327 328 328 327 327 327 328 327 326 327 328 328 327 326 326 325 325 325 326 326 326 325 325 325 324 324 323 323 322 321 320 321 320 319 320 319 319 318 316 316 316 314 313 312 312
328 316 326 331 318 332 335 317 316 317 314 312 315 320 321 321 320 313 307 307 310 313 312 309 309 309 309 309 308 309 306 302 303 305 306 307 310 312 310 311 313 313 314 316 317 319 320 321 322 324 324 324 325 326 327 326 325 325 326 324 324 326 326 325 325 324 325 324 324 324 324 324 324 324 324 323 323 322 321 320 319 317 317 318 316 314 314 313 312 311 309 310 311 311 311 310 309
336 321 324 332 322 327 329 317 316 316 315 313 314 321 323 321 317 310 306 307 309 312 312 309 308 308 308 308 307 308 307 305 303 303 305 306 310 312 310 312 314 313 314 315 317 318 319 320 321 323 322 323 324 324 324 324 323 323 325 322 322 324 323 322 323 323 323 323 323 323 322 323 322 322 322 322 322 321 319 318 316 314 313 312 310 308 306 304 304 304 303 304 307 309 309 307 306
334 323 321 331 327 322 324 324 318 312 314 315 314 316 320 320 316 311 308 307 309 311 312 310 308 307 306 306 307 307 307 307 304 302 304 305 308 312 311 312 314 314 314 315 317 317 318 318 318 320 320 320 322 322 322 321 319 320 321 319 321 322 320 320 321 321 321 321 321 321 320 320 320 320 321 321 321 319 318 316 313 311 309 308 305 303 300 300 301 303 303 304 306 307 307 306 305
332 326 325 328 324 320 324 326 318 312 314 316 316 316 317 316 315 315 312 307 309 311 310 309 307 307 307 306 306 306 306 306 303 301 303 304 308 312 311 312 313 314 314 314 316 316 316 315 315 317 317 317 319 318 318 318 316 317 317 316 318 318 318 319 319 319 319 319 319 318 318 318 318 319 318 319 319 317 315 313 310 307 306 304 301 298 297 298 301 304 306 305 306 306 305 304 303
333 334 333 329 324 323 325 326 322 316 314 317 317 316 317 316 315 316 314 308 308 310 309 308 308 307 306 306 306 306 306 305 302 302 303 303 308 311 310 311 312 313 313 313 314 315 314 313 313 314 314 314 316 314 315 315 313 313 314 315 316 315 316 317 316 317 317 317 317 316 316 317 317 316 316 316 315 314 312 310 306 302 300 299 297 296 295 296 299 303 306 305 305 305 303 301 301
326 329 329 326 326 325 324 325 323 315 314 321 319 315 316 315 316 315 313 310 309 310 309 308 308 307 307 306 306 306 306 304 301 302 302 303 308 310 309 310 311 310 311 311 312 312 313 312 312 313 312 312 313 314 314 313 313 313 312 312 313 311 313 314 313 313 314 314 314 313 313 314 314 313 313 312 312 311 308 303 299 297 296 296 295 295 294 295 297 302 305 304 304 303 300 299 299
320 322 323 324 325 324 321 319 319 315 315 323 320 316 316 314 314 313 313 313 313 312 311 310 309 307 307 307 306 306 306 304 301 301 301 302 306 308 308 309 309 309 309 310 311 311 310 310 312 313 312 310 310 312 312 311 313 314 313 312 311 308 309 311 311 310 310 310 310 310 310 309 309 309 309 309 309 306 301 297 295 295 295 295 295 294 294 293 295 299 302 302 302 301 299 299 299
319 321 320 323 324 322 322 319 317 314 315 324 323 318 317 315 314 313 313 313 312 311 311 311 311 309 308 307 306 306 307 306 303 301 300 301 304 306 307 308 308 309 309 309 310 310 309 308 309 311 311 308 307 307 308 309 310 312 313 312 311 309 308 307 307 306 306 306 306 305 305 305 305 305 305 304 302 299 295 294 294 294 294 295 294 293 293 293 292 294 296 297 297 297 296 297 298
320 321 319 323 324 322 324 323 318 316 316 321 322 318 316 315 315 315 314 313 312 311 311 310 310 310 309 308 307 306 307 306 304 302 300 300 303 305 306 307 308 308 308 308 309 308 307 306 307 308 308 307 306 306 306 307 308 309 311 310 310 310 306 303 303 301 301 301 301 300 300 301 301 300 300 298 296 294 294 294 294 294 294 293 293 293 292 292 292 291 292 292 293 292 291 291 293
323 322 320 322 323 322 324 324 322 323 322 319 320 322 323 323 321 319 318 317 315 313 313 312 311 310 310 309 308 307 306 305 304 303 301 299 302 303 305 307 307 307 307 307 308 307 307 306 306 307 306 306 307 306 306 307 308 308 307 304 304 303 300 297 297 295 295 296 295 295 295 295 295 295 294 294 294 294 294 294 293 293 292 292 292 292 291 291 291 291 291 291 292 291 290 289 289
326 325 321 320 322 322 322 321 321 326 330 322 319 326 334 337 332 326 326 326 323 317 315 315 312 310 310 310 309 308 307 305 303 303 301 299 301 303 305 306 306 307 306 307 309 308 307 307 306 305 305 306 307 307 307 308 309 310 309 304 299 296 293 292 293 293 292 292 292 292 292 292 293 293 293 293 293 293 293 292 292 292 291 291 291 291 291 291 290 290 290 290 290 290 290 289 288
325 327 323 320 319 320 321 321 322 328 332 321 317 326 332 330 327 329 332 332 329 324 319 317 314 312 311 309 309 308 307 305 303 302 301 300 301 303 304 305 306 306 306 307 308 306 307 308 307 304 304 307 308 307 308 308 309 311 312 309 303 298 294 291 292 292 291 291 292 292 292 292 292 293 293 293 292 292 292 291 291 291 291 291 291 291 290 290 290 289 289 289 289 289 290 289 287
329 325 323 322 319 320 321 321 323 327 327 322 322 325 325 324 323 325 327 326 326 323 320 319 316 314 312 309 308 308 306 305 303 302 301 300 301 303 304 305 305 306 306 306 306 305 305 308 309 306 303 306 308 307 307 307 308 310 310 307 303 299 296 292 290 291 291 291 291 291 291 292 292 292 292 292 291 291 291 290 290 291 290 290 290 290 289 289 289 289 288 288 288 288 288 288 287
328 320 320 322 321 324 325 324 325 324 323 328 329 323 322 328 330 327 322 323 327 325 322 321 319 318 315 311 308 307 306 304 303 303 301 300 300 302 305 305 305 306 306 305 305 305 305 306 307 306 303 304 306 306 306 306 307 309 309 305 299 295 294 291 289 290 291 291 291 291 291 291 291 291 291 290 290 290 290 290 290 290 290 289 289 289 288 288 288 288 288 287 287 287 287 287 287
320 316 320 323 323 327 328 329 329 326 324 327 329 324 324 328 331 329 323 325 329 325 322 321 321 323 318 312 308 306 305 304 303 302 300 300 300 302 304 304 304 305 305 305 305 305 305 304 303 304 303 303 304 304 305 305 305 307 307 304 299 293 291 290 290 290 290 290 291 290 291 291 290 290 290 290 289 289 290 289 289 289 289 289 288 288 288 288 287 287 287 287 287 287 286 287 287
316 322 329 329 329 330 331 330 327 328 328 325 327 327 325 326 332 331 325 329 332 327 325 326 328 328 321 313 308 306 305 303 303 301 300 300 300 301 302 303 303 304 305 304 304 304 305 304 302 302 303 303 304 304 303 303 302 303 304 303 300 294 290 290 290 289 289 290 290 290 290 290 289 289 289 289 289 289 289 289 289 288 288 288 287 287 287 287 287 287 287 287 287 286 286 286 286
320 333 334 331 333 330 329 330 327 329 329 325 326 324 321 326 331 330 325 326 327 325 325 329 333 334 328 315 307 306 305 302 302 302 301 299 299 299 300 301 302 303 304 303 303 303 304 304 302 301 302 303 304 303 301 301 300 300 301 302 300 295 291 290 290 290 290 290 290 289 289 289 289 289 289 288 288 288 288 288 288 288 287 287 287 287 287 287 287 287 287 287 287 286 286 286 286
323 332 329 327 331 329 329 330 328 329 326 320 319 320 322 324 325 326 325 324 324 320 319 322 326 331 332 320 307 305 304 302 302 301 301 299 298 298 298 300 301 301 302 302 301 301 302 303 302 300 301 302 302 300 298 298 298 298 299 299 297 293 291 290 290 290 290 290 290 289 289 289 288 288 288 288 288 288 288 288 287 287 287 287 287 287 287 287 287 287 287 287 286 286 286 286 286
322 326 327 328 329 331 335 332 327 327 324 317 314 320 324 324 324 324 322 321 323 321 318 318 318 321 326 321 310 305 304 302 301 301 301 300 298 298 298 299 300 300 301 301 300 300 300 301 300 300 301 301 300 298 296 296 297 297 297 296 294 292 291 290 290 290 290 290 290 290 289 289 289 289 288 288 288 288 287 287 287 287 287 287 287 287 287 287 286 286 286 286 286 285 285 285 285
320 323 325 327 330 334 336 334 330 330 328 321 315 321 329 331 331 326 321 321 324 323 320 318 316 314 314 313 309 305 303 301 301 300 300 299 298 298 298 299 299 300 301 300 299 299 299 299 299 300 300 299 297 296 295 295 295 295 294 293 292 291 291 291 290 290 290 291 290 290 290 290 289 289 288 288 288 287 287 287 286 287 287 287 287 287 287 287 286 286 286 286 285 285 285 285 285
320 322 324 325 328 328 326 326 326 325 327 325 320 324 330 329 326 322 320 323 324 321 319 319 319 313 310 311 310 305 302 301 300 300 300 299 297 298 298 299 299 299 300 299 299 298 298 299 299 299 299 298 296 295 294 293 293 293 292 291 291 291 291 291 290 290 290 291 291 290 290 289 289 288 288 288 287 287 287 286 287 287 287 287 287 287 287 286 286 286 286 285 285 285 284 284 284
321 320 323 323 321 322 323 323 319 319 323 326 324 326 328 325 324 322 319 322 324 321 321 323 319 314 313 314 310 305 302 301 300 300 300 298 297 297 298 298 299 299 299 299 299 299 299 299 298 297 298 297 295 294 294 293 293 292 291 290 290 290 291 291 290 290 290 290 290 290 290 289 288 288 288 287 287 287 287 286 287 287 287 287 287 287 286 286 286 285 285 285 285 284 284 284 284
322 324 324 319 318 324 328 327 325 326 328 327 324 326 327 326 327 324 319 320 322 321 322 321 317 317 317 313 307 304 302 300 300 300 299 297 296 297 297 298 298 299 299 299 299 299 299 299 298 297 296 296 294 294 294 293 292 292 290 290 290 290 291 291 291 291 290 290 290 290 289 289 288 288 288 287 287 286 286 287 287 287 287 287 287 286 286 286 286 285 285 285 284 284 284 283 283
321 326 323 322 327 328 326 327 330 330 329 329 326 324 323 323 325 324 321 323 326 323 320 319 319 320 317 311 307 305 302 301 300 300 299 297 296 296 297 297 298 298 298 298 298 298 298 298 298 297 297 296 295 293 293 292 292 291 290 290 289 290 290 290 290 290 290 290 290 290 289 288 288 288 287 287 287 286 286 287 287 288 287 287 287 286 286 285 285 285 285 284 284 284 283 283 283
317 319 318 320 326 327 325 326 327 328 329 330 329 325 323 323 324 325 323 323 327 327 325 325 326 322 315 310 307 304 302 301 300 299 298 297 295 296 296 297 297 297 298 298 297 297 296 296 295 295 295 296 295 293 292 291 291 290 290 289 289 289 290 290 290 290 290 290 290 290 289 288 288 288 287 287 287 287 287 287 287 288 287 287 286 286 286 285 285 285 285 284 284 284 283 283 283
318 320 320 319 320 322 324 324 323 327 330 330 330 327 325 326 323 324 325 323 324 327 329 330 329 321 315 311 308 304 302 301 300 298 298 296 295 295 296 297 297 297 297 297 296 296 295 295 294 294 294 294 294 293 292 291 290 290 289 289 289 289 290 290 290 290 290 290 290 290 289 288 288 288 287 287 287 287 287 287 287 287 287 287 286 286 286 285 285 285 284 284 284 284 283 283 283
319 320 321 320 319 321 324 323 322 324 326 328 329 327 326 329 325 321 326 328 325 323 323 326 323 317 318 316 308 305 302 301 300 298 298 296 294 294 295 295 296 296 296 295 295 295 294 294 293 293 294 294 294 293 292 291 291 290 290 289 289 290 289 289 289 290 290 290 290 290 289 288 288 287 287 287 287 287 287 287 287 287 287 287 286 286 286 285 285 285 284 284 284 284 283 283 282
Wind_Speed
6 4 5 4 3 2 2 5 3 2 4 2 1 1 2 2 2 2 0 2 2 2 3 2 4 4 4 6 8 6 4 3 4 4 3 4 1 2 6 6 7 8 7 10 12 12 11 10 11 11 12 12 11 12 13 13 14 14 14 12 12 12 12 12 11 10 10 9 9 11 13 13 13 13 13 13 13 13 14 16 16 16 16 18 20 20 21 22 22 21 19 17 15 14 11 8 6
5 4 4 3 2 0 1 4 3 3 5 2 2 2 2 2 1 4 4 2 3 2 1 7 8 8 7 7 7 6 4 1 3 3 2 1 1 2 4 3 6 9 8 11 13 12 11 11 10 10 11 11 11 12 13 13 14 13 13 11 11 12 11 11 10 10 9 9 9 10 12 12 12 12 12 12 12 12 14 15 15 15 15 18 20 20 21 22 21 20 18 17 16 15 14 12 9
5 3 3 2 1 3 1 4 3 2 5 2 3 3 2 0 4 6 6 3 5 6 4 6 7 5 4 5 4 4 2 2 0 1 1 3 1 2 4 5 8 9 9 11 13 12 12 11 10 10 10 11 11 12 12 13 13 13 13 11 10 11 11 11 10 10 11 10 10 9 11 12 12 11 11 11 11 11 13 14 14 14 15 18 20 21 22 21 20 18 17 17 16 15 15 14 12
4 2 3 3 1 4 4 4 3 4 4 3 2 4 3 4 7 6 6 4 4 4 2 3 4 2 3 5 2 2 2 1 1 1 0 3 3 4 7 8 10 11 11 12 13 13 12 11 10 10 10 11 11 11 11 12 13 14 13 11 10 10 10 10 9 10 11 11 11 10 10 11 12 11 10 10 10 11 12 13 13 13 15 18 19 21 21 20 19 17 17 16 15 15 16 16 15
3 2 3 2 2 2 4 3 3 4 3 4 3 5 5 6 7 5 4 4 3 4 3 3 3 2 3 4 0 2 1 2 1 1 1 2 5 7 8 11 12 11 12 12 13 13 12 11 11 11 11 11 11 10 10 11 12 13 13 13 12 11 10 10 9 9 10 10 11 11 10 10 11 11 10 9 10 11 11 11 12 13 15 17 19 20 20 19 18 17 16 16 15 15 16 16 16
1 1 5 5 3 1 3 3 3 2 4 5 4 5 6 6 6 5 2 2 1 2 3 3 3 2 3 2 0 2 1 1 2 2 1 2 5 8 10 12 13 12 12 12 14 14 12 12 11 11 11 11 11 10 10 11 11 12 12 13 13 12 11 10 10 9 9 10 10 10 10 10 10 11 10 9 9 10 11 11 11 13 16 17 19 19 19 19 18 17 16 16 15 14 15 15 15
0 1 4 6 3 2 4 3 5 2 3 5 4 5 7 7 5 5 1 1 3 3 2 2 4 6 2 2 1 1 2 2 1 1 2 1 4 9 12 13 14 13 12 12 14 14 13 11 10 10 10 11 12 11 11 11 11 11 12 13 13 12 11 11 10 10 9 9 9 9 10 10 10 11 10 9 9 10 10 10 10 13 15 17 18 17 18 18 18 18 16 16 15 14 14 14 15
3 1 1 5 3 4 4 3 3 3 1 3 4 5 7 7 5 4 2 1 1 2 3 1 2 6 0 1 1 1 4 3 1 3 3 1 4 10 13 14 14 14 13 13 14 14 13 11 10 10 9 10 11 12 11 11 11 12 11 12 13 11 11 11 11 10 9 9 8 8 9 10 10 11 10 9 9 10 10 10 10 12 14 15 16 16 17 18 18 19 17 16 15 14 13 13 14
4 2 1 5 3 3 3 2 0 2 2 3 4 4 4 4 4 3 3 1 1 1 1 3 1 2 2 3 0 4 2 3 3 4 4 3 4 11 14 14 15 14 14 13 14 15 13 13 12 11 10 10 11 11 11 11 11 11 11 11 12 11 10 11 10 10 10 9 8 7 8 9 10 11 10 9 9 9 9 9 10 11 12 13 15 16 16 18 18 19 18 16 16 15 14 14 13
5 3 2 4 3 3 3 1 1 2 3 4 3 5 4 4 4 2 4 2 1 2 1 2 3 3 4 3 1 2 1 2 3 5 6 5 6 12 15 15 15 15 15 14 14 15 14 14 13 12 11 10 11 11 11 12 11 11 11 10 10 10 10 10 10 10 9 9 7 7 7 9 9 10 9 9 9 8 8 8 8 9 10 12 14 15 15 17 18 19 19 17 16 16 15 15 14
3 4 3 4 4 3 2 3 3 3 4 4 3 6 5 5 5 3 3 3 1 2 1 1 3 3 4 1 2 1 2 2 4 6 7 7 7 12 16 17 17 16 15 15 15 15 14 13 13 12 12 11 11 12 12 12 12 12 12 11 10 9 9 10 9 9 9 8 8 6 7 7 8 9 8 8 8 8 7 7 7 8 9 10 13 14 15 16 18 19 19 18 17 16 16 15 14
2 3 4 4 3 3 4 5 4 4 5 3 2 5 3 5 5 3 3 4 1 2 1 0 3 5 4 2 3 1 2 3 5 7 6 7 8 12 15 17 17 17 16 17 18 16 14 13 12 12 11 11 10 11 11 11 13 13 13 12 11 11 10 10 10 10 9 9 8 7 7 6 7 7 7 7 7 7 7 6 6 8 8 10 13 14 14 15 17 19 19 18 17 16 15 14 13
4 2 5 3 3 4 4 5 3 1 4 3 4 3 2 5 5 7 7 5 1 3 1 3 3 5 3 2 2 2 3 6 7 7 6 8 10 12 15 17 17 18 15 16 18 15 15 14 12 12 9 9 10 10 12 11 12 13 13 13 12 12 11 11 10 10 10 9 8 7 7 6 7 6 6 6 6 7 6 6 6 7 8 10 12 13 13 14 16 19 20 19 18 16 15 14 13
3 3 5 3 2 3 4 3 2 3 3 5 2 2 1 1 3 6 8 5 1 3 1 4 3 4 1 1 2 4 5 8 9 8 7 10 12 13 14 15 16 18 14 13 17 15 14 11 10 13 9 9 10 10 13 12 12 13 14 13 13 13 12 11 11 10 10 9 8 8 7 7 6 6 6 5 5 6 6 6 6 7 7 9 11 11 12 13 16 19 19 19 19 18 17 15 14
3 3 5 4 2 2 3 2 3 5 5 4 2 1 2 1 3 4 5 6 2 2 1 3 3 1 3 4 4 5 9 12 12 10 9 11 14 14 14 14 14 16 16 13 15 15 14 11 8 13 14 12 12 12 13 12 11 12 13 13 14 14 13 12 11 10 10 10 9 8 8 7 7 6 6 5 5 5 6 6 6 7 7 8 9 10 11 12 15 18 18 18 19 19 18 17 16
3 4 5 4 2 2 3 2 3 3 5 4 2 1 4 1 2 3 3 4 3 3 3 1 3 1 3 5 4 5 14 14 13 13 12 13 14 14 13 14 13 13 14 13 14 15 15 13 9 13 17 14 12 13 13 12 12 11 11 12 13 15 15 13 12 11 10 10 10 9 9 8 8 8 7 7 6 6 6 6 6 7 6 6 7 9 10 11 14 16 17 17 18 18 19 19 18
3 5 5 3 3 4 4 4 4 4 5 5 4 1 6 1 2 2 1 6 5 2 4 1 3 2 2 2 1 8 15 15 16 16 14 14 13 14 13 13 13 13 13 12 13 13 15 15 10 11 17 15 11 13 13 12 12 12 11 10 11 12 13 14 13 12 12 11 11 10 9 9 9 9 9 9 8 7 7 7 6 6 6 6 6 7 9 10 12 15 15 16 17 17 18 18 18
5 4 4 3 3 3 5 7 7 4 4 5 4 3 7 4 2 2 2 7 4 2 4 3 5 4 1 1 3 8 14 17 19 18 15 14 12 13 12 11 12 12 13 13 13 13 15 17 14 11 14 13 11 13 15 14 11 12 11 9 10 9 11 13 13 13 13 12 11 10 10 10 10 10 9 9 10 9 8 8 7 6 7 7 6 6 8 9 11 13 13 14 16 15 15 17 17
4 3 4 3 5 4 5 7 6 3 3 5 3 3 5 6 4 3 1 2 2 2 2 4 4 3 1 2 4 8 14 19 19 18 16 14 12 12 11 10 11 11 12 12 13 14 15 17 16 14 15 14 12 12 15 16 12 11 10 9 9 9 11 12 13 14 13 13 12 10 10 11 11 11 11 10 11 11 9 9 8 7 7 7 6 6 7 8 9 11 11 12 14 13 13 15 16
2 4 4 4 6 3 4 6 7 5 4 6 3 2 2 3 4 2 3 3 0 3 4 1 3 6 5 3 4 9 14 17 18 17 15 13 12 12 11 10 10 10 10 11 12 13 15 17 18 17 16 15 14 13 14 16 14 12 12 10 10 11 11 12 13 13 12 11 10 10 10 10 10 10 10 10 11 12 11 10 9 7 6 8 9 8 6 7 8 9 9 10 11 10 11 12 14
2 4 3 5 4 2 3 6 5 4 5 7 4 4 2 3 2 2 5 5 3 7 7 7 9 10 9 6 5 10 13 14 15 16 15 13 12 11 10 10 9 9 9 10 11 12 14 16 18 20 18 15 15 15 14 16 15 13 12 11 12 12 13 13 13 11 10 10 9 10 10 10 10 9 8 9 11 12 13 12 10 9 8 9 10 9 8 7 7 7 8 8 7 7 10 11 13
3 2 3 5 4 2 3 5 3 3 5 5 5 4 3 2 1 3 8 6 6 6 7 8 8 10 11 9 8 9 11 12 13 15 15 13 12 11 10 9 9 8 8 9 10 11 13 16 18 21 20 17 16 15 15 16 16 13 12 14 14 12 14 14 13 12 10 9 9 9 9 10 10 10 9 9 9 10 12 12 11 11 11 10 10 10 10 8 7 7 8 7 6 7 10 11 12
3 1 1 3 3 2 2 3 3 5 7 5 5 3 2 2 2 2 8 8 6 4 5 6 6 10 13 11 10 8 9 11 12 14 15 14 13 12 10 9 8 8 8 9 9 10 12 15 17 19 21 19 17 16 16 16 16 15 15 16 16 14 16 14 13 13 12 10 10 9 9 10 11 12 11 9 9 10 11 10 10 11 11 12 11 12 12 11 9 7 8 9 7 7 9 10 10
5 1 2 1 3 3 2 2 3 5 7 6 4 3 3 5 3 1 5 8 3 3 2 4 8 14 15 10 8 8 9 10 11 13 13 14 13 11 10 8 9 9 8 8 9 8 9 13 15 18 21 20 19 17 16 17 18 18 15 16 18 19 19 16 14 13 12 12 11 10 10 11 12 12 11 10 10 10 10 10 10 10 10 11 12 12 13 12 10 8 8 8 7 7 8 9 9
5 2 2 1 1 3 1 2 1 4 4 3 5 3 4 6 3 0 7 7 0 3 5 8 10 12 10 8 7 7 8 9 10 11 11 11 11 10 9 8 9 8 6 7 8 8 7 9 13 17 20 20 19 17 17 18 20 19 15 16 20 21 20 17 16 13 11 11 10 10 11 12 13 12 12 11 10 11 11 10 11 10 10 9 10 12 10 9 9 9 10 8 7 8 10 10 7
1 4 2 1 1 5 1 2 2 3 2 3 5 3 5 2 1 4 6 5 3 5 6 6 8 8 6 6 7 8 8 9 11 11 11 11 10 10 9 8 8 7 6 6 7 7 6 6 10 15 18 20 19 18 19 19 20 20 17 18 21 20 19 18 18 16 13 11 10 10 11 12 13 14 14 13 12 11 11 10 10 10 9 9 10 10 8 8 9 11 11 9 9 10 11 11 7
2 4 3 1 2 5 1 3 4 1 1 4 6 5 4 3 1 4 4 5 5 7 6 4 7 7 6 5 6 8 9 11 13 12 11 11 11 11 10 9 8 8 7 6 7 7 7 6 10 15 18 20 21 21 22 22 21 21 20 20 20 19 19 18 17 16 15 14 13 13 12 13 14 15 15 14 13 12 11 11 11 10 10 11 10 11 10 10 11 12 12 10 10 10 11 10 8
2 2 1 2 5 5 2 2 4 1 2 5 7 4 3 3 1 6 4 5 6 7 7 4 6 6 6 5 5 7 9 12 13 13 14 14 14 13 12 11 10 9 8 7 8 9 9 10 14 17 19 21 23 22 23 23 22 21 21 20 18 18 18 17 15 14 15 15 15 16 15 15 15 15 15 15 14 13 13 13 13 13 13 13 12 12 12 12 11 11 10 9 9 9 9 9 9
1 2 1 5 8 5 3 2 3 3 2 5 6 1 4 3 6 6 2 5 5 7 7 5 6 5 5 6 5 6 9 12 13 14 16 15 14 13 12 11 10 10 10 9 9 10 11 14 18 19 20 22 22 23 22 22 22 21 22 21 21 20 18 17 16 16 17 16 16 17 16 16 15 15 16 16 15 15 15 14 14 14 14 14 13 12 11 11 10 10 9 8 8 8 9 11 11
0 3 2 4 7 5 4 1 2 4 3 4 4 2 6 8 10 5 2 7 7 6 7 6 6 5 5 5 5 5 8 12 14 17 17 14 14 13 12 12 11 10 10 10 11 12 14 16 20 20 21 22 23 23 23 23 23 23 22 21 22 21 18 18 17 17 18 17 17 18 17 16 15 15 16 15 15 15 15 15 15 15 14 13 12 11 10 10 10 9 9 9 10 10 12 14 15
1 1 2 2 2 4 6 1 4 5 2 2 4 3 7 9 10 5 5 8 9 8 8 7 6 6 5 5 5 6 8 12 15 17 17 15 15 14 13 12 12 11 11 12 12 14 16 18 20 21 21 22 23 24 24 24 24 24 23 22 22 20 19 19 19 18 16 16 17 18 18 17 16 15 15 15 15 16 15 15 15 15 14 12 12 11 10 10 9 9 9 10 13 14 16 18 19
3 1 3 3 1 5 8 3 5 5 0 1 4 3 7 9 9 4 5 6 7 9 8 7 7 7 7 6 6 6 6 11 14 16 17 16 16 15 14 13 13 12 12 13 14 16 18 19 20 21 22 23 23 24 24 24 24 23 22 22 22 20 19 19 19 17 16 16 16 16 17 16 15 16 16 15 16 17 17 17 16 16 15 13 13 13 12 12 11 12 12 12 14 17 19 21 23
4 0 3 2 2 3 6 3 3 2 1 0 2 3 4 5 5 3 4 6 6 7 7 8 8 8 8 6 6 6 5 8 11 14 17 16 16 16 14 14 14 13 13 15 16 18 20 20 21 21 22 23 22 23 24 25 26 25 22 22 22 19 18 19 17 16 17 18 17 17 17 16 16 17 16 15 16 18 19 19 18 17 16 15 16 15 15 15 14 14 15 15 16 20 22 24 25
4 1 2 4 3 2 3 4 3 1 3 3 3 4 7 7 3 0 4 6 6 8 9 9 9 8 7 6 6 7 6 7 9 14 18 17 17 17 15 15 15 14 15 16 17 19 20 21 22 22 23 22 22 23 24 25 26 26 24 23 21 18 18 18 17 18 19 19 18 19 18 18 17 16 16 16 18 19 19 20 20 18 17 17 17 17 18 17 16 16 19 20 20 22 24 25 26
3 2 1 3 3 2 3 4 2 3 1 3 4 4 11 13 8 4 6 6 8 10 10 8 8 8 8 8 8 8 8 9 10 15 18 18 18 18 17 17 17 16 17 17 17 19 21 22 22 23 24 24 24 25 25 24 24 24 24 23 22 21 20 19 19 20 20 20 19 19 19 18 17 16 17 18 19 20 21 21 20 19 18 18 19 20 20 19 18 19 21 24 24 24 25 26 27
6 5 4 3 4 3 5 5 5 4 3 4 7 7 10 12 12 8 6 7 8 10 9 7 8 8 8 9 9 9 10 10 11 16 19 18 19 20 18 18 18 18 18 18 19 20 22 22 22 22 24 25 26 26 25 25 25 24 23 24 24 23 22 21 21 20 20 21 20 20 20 19 18 18 19 20 20 21 22 21 21 21 20 20 21 22 21 20 19 20 22 24 25 26 27 27 26
5 4 3 4 4 5 5 4 6 2 4 6 8 9 11 11 12 11 5 6 8 10 10 10 10 9 10 11 11 11 11 8 10 17 19 19 20 21 19 19 19 19 19 20 20 21 22 23 23 23 23 24 25 26 26 27 26 25 25 25 25 24 23 22 22 22 22 22 22 22 21 21 21 22 22 22 22 22 23 23 23 23 21 21 22 22 21 21 20 20 23 24 25 27 26 25 25
3 3 2 3 4 6 7 4 5 1 3 6 5 6 11 11 12 11 3 6 10 13 13 14 14 12 11 12 13 11 7 5 9 15 18 20 21 21 20 19 20 20 21 21 22 23 23 23 24 24 24 25 25 25 26 26 26 26 26 26 26 26 25 24 25 25 24 24 24 23 23 23 23 23 23 23 23 23 24 25 24 23 21 20 21 21 20 20 20 20 22 23 23 23 21 20 20
1 2 1 3 3 4 6 4 4 0 4 5 4 4 10 12 11 11 8 9 11 13 15 16 14 13 13 12 12 11 8 7 9 12 16 20 22 22 21 20 21 21 22 23 23 23 23 23 24 25 26 26 25 25 26 26 26 26 26 27 27 26 26 26 27 26 25 25 25 25 24 24 24 24 24 24 24 25 25 24 23 22 20 19 20 21 20 19 19 18 19 20 21 21 17 14 13
3 3 2 3 3 2 4 4 3 1 2 2 4 4 8 11 9 10 12 11 10 11 13 13 12 13 14 13 12 12 12 11 10 10 13 18 21 22 23 22 22 22 23 24 24 24 24 24 25 26 27 26 26 26 26 27 28 28 28 28 27 27 27 27 28 27 27 27 27 26 26 26 26 26 26 25 25 24 23 22 21 20 19 19 19 21 21 20 19 18 17 16 17 19 18 14 10
5 6 6 5 4 6 6 4 4 3 3 2 3 6 7 8 8 9 8 5 8 11 10 12 13 12 11 9 10 12 13 13 13 12 12 16 21 22 24 24 22 23 25 26 26 26 26 26 26 27 28 28 28 28 28 29 30 30 30 29 27 28 28 28 29 29 28 29 29 29 29 28 28 28 27 25 24 23 22 21 20 20 21 20 20 21 21 21 20 18 16 15 14 16 18 17 15
5 5 10 10 8 8 6 3 5 4 5 3 3 4 6 5 6 8 5 4 7 9 8 13 15 11 9 9 10 10 10 11 12 13 14 17 20 22 23 25 24 25 26 27 28 28 28 28 28 28 28 29 29 29 29 30 31 30 29 30 29 30 29 28 30 31 30 32 32 31 30 29 28 26 25 23 22 22 21 21 21 21 21 21 20 20 21 20 19 18 17 16 16 15 16 18 17
4 5 9 11 9 6 5 2 2 1 5 3 2 2 6 7 7 7 5 6 10 9 9 13 12 8 9 11 9 9 9 9 10 11 13 16 20 22 24 26 27 27 27 28 29 29 28 29 30 29 29 30 31 30 30 30 30 29 29 30 31 33 31 28 30 33 33 33 33 32 31 29 27 25 24 23 22 22 22 22 22 21 21 20 20 20 21 20 20 19 17 17 17 14 14 18 18
4 5 6 8 8 7 6 5 4 3 3 4 1 2 5 8 7 5 3 7 11 12 13 13 11 9 10 10 9 10 11 11 11 12 13 16 21 25 26 28 28 27 28 29 30 30 29 30 31 30 29 31 31 29 30 30 30 29 30 32 33 33 33 31 32 34 34 34 34 32 31 29 26 24 24 23 22 22 22 22 21 21 21 21 20 21 21 21 20 20 18 17 17 15 14 16 16
5 3 6 6 6 6 4 5 3 1 2 5 4 1 3 7 5 4 3 4 10 13 15 15 12 9 10 10 10 10 10 11 12 12 14 17 23 27 29 29 27 27 29 30 31 31 30 31 31 31 30 30 30 30 31 31 30 30 31 34 33 32 34 35 34 35 35 34 34 32 30 29 27 25 25 24 23 22 21 21 21 21 21 21 21 21 22 21 20 19 19 18 17 17 15 15 15
3 5 7 6 5 5 4 4 3 2 1 7 6 3 3 7 4 1 2 2 9 12 12 11 8 7 8 10 9 9 8 8 10 11 14 19 24 26 27 27 26 28 30 31 31 31 31 31 31 31 31 30 31 33 33 31 30 31 32 35 35 35 37 37 35 35 35 34 34 33 31 29 28 27 26 24 23 22 21 21 21 21 21 21 21 21 21 20 19 19 18 17 17 17 16 14 14
6 6 6 7 6 5 3 2 4 1 4 8 8 9 7 6 3 4 4 5 7 8 8 8 6 6 7 7 7 8 7 7 8 8 11 17 20 22 24 25 26 28 29 30 31 32 32 31 31 31 31 32 33 34 33 31 31 32 34 36 37 39 40 40 38 37 36 35 35 34 32 30 29 27 26 25 24 23 22 21 20 21 21 21 21 21 20 19 18 17 17 16 15 15 14 12 13
5 4 5 3 4 4 4 4 4 1 6 5 5 6 8 8 6 4 6 7 7 8 8 8 7 7 6 6 6 7 7 7 8 8 9 12 15 19 23 25 26 28 30 31 31 32 33 33 32 32 31 32 34 34 32 32 33 34 35 36 38 42 43 42 42 40 39 38 37 35 33 32 30 28 27 25 24 23 22 21 21 21 21 20 20 19 18 17 16 15 14 14 13 12 11 10 10
4 4 6 4 2 3 3 3 0 4 7 3 1 1 4 9 8 7 9 11 11 10 8 8 8 8 6 5 6 6 7 8 9 8 9 10 13 18 23 25 27 29 31 32 32 32 33 34 34 33 33 33 34 34 33 33 34 35 36 38 40 43 44 42 42 41 40 39 38 37 36 34 32 30 28 26 25 23 22 21 21 21 20 20 19 18 17 15 14 13 12 12 11 11 10 8 8
5 6 6 5 2 0 3 4 2 4 6 3 1 1 3 5 6 10 15 16 13 9 7 8 8 8 7 6 6 7 8 9 9 9 10 10 14 20 24 27 28 29 31 32 32 33 33 34 34 34 34 34 35 35 34 34 35 35 37 39 42 44 43 41 41 41 40 39 38 37 36 34 33 31 29 27 26 24 22 21 21 20 20 18 17 16 15 14 12 11 10 10 10 10 9 7 6
5 4 5 5 6 4 4 4 4 5 4 4 2 2 4 3 3 8 11 10 9 8 7 6 7 8 6 4 6 7 8 9 8 10 11 12 17 22 25 27 29 30 32 32 32 33 33 35 35 35 35 36 36 36 35 35 36 36 38 40 43 44 43 41 40 40 40 39 37 36 34 32 31 30 29 27 26 25 23 22 21 19 19 17 16 14 13 12 11 10 10 10 10 9 8 7 6
3 2 4 4 6 5 3 3 4 2 3 4 2 4 5 4 6 8 7 7 8 8 7 6 8 6 3 5 6 7 8 8 9 10 10 12 18 23 25 27 29 29 31 32 33 34 34 35 36 36 37 37 37 37 36 36 36 37 39 41 43 43 42 41 40 39 39 37 36 34 33 31 31 30 29 28 26 25 23 22 21 19 17 16 14 13 12 11 10 9 9 9 9 9 7 6 6
2 3 4 4 4 6 2 3 1 3 3 5 3 5 5 3 8 9 7 9 10 8 7 9 8 4 3 7 7 7 8 9 9 10 10 12 17 22 24 27 28 29 31 32 34 36 36 37 37 37 37 38 38 37 37 36 37 38 40 41 42 42 42 41 41 40 38 36 34 33 32 32 31 30 29 28 27 25 23 22 20 18 17 15 14 13 12 11 10 9 8 8 8 8 7 7 6
6 4 6 3 2 2 2 2 3 3 4 5 2 6 5 2 6 5 1 8 12 11 11 10 7 5 7 8 6 7 8 8 9 9 9 11 16 21 24 26 29 30 32 34 35 36 36 37 38 38 38 39 39 38 38 38 38 40 41 42 42 42 42 41 41 40 38 37 35 34 33 32 31 30 29 28 27 25 24 22 20 18 17 16 15 14 13 12 10 9 8 8 8 8 7 7 7
5 4 5 4 2 1 2 2 2 1 4 5 3 4 4 6 6 2 3 10 11 12 11 9 9 10 10 8 7 8 7 7 8 8 8 10 15 20 23 25 28 30 31 33 34 35 35 36 37 38 39 39 39 38 38 39 39 41 42 42 41 41 41 41 40 40 39 37 36 35 34 33 32 31 29 28 27 25 24 22 19 18 17 17 16 15 14 12 11 10 9 8 9 8 7 7 7
3 2 3 2 2 4 3 3 3 3 3 4 3 3 4 7 7 7 10 11 10 10 9 8 12 13 9 6 6 7 8 8 8 9 9 9 14 20 24 26 29 30 31 32 32 34 35 35 36 37 38 39 39 38 38 39 39 41 42 41 41 41 41 41 40 40 39 38 36 35 34 34 33 32 30 29 27 26 24 21 19 18 18 18 17 16 15 14 12 11 10 9 9 8 8 8 8
3 4 5 3 1 2 1 1 2 4 2 2 3 7 6 4 5 9 11 10 10 10 9 9 12 9 4 5 7 7 8 9 8 9 8 9 14 20 23 26 28 29 30 31 32 33 34 35 36 36 37 39 40 39 39 39 40 41 41 42 41 41 41 41 41 41 40 38 37 36 35 34 34 32 31 30 28 26 24 21 20 19 18 18 17 17 16 15 14 13 12 10 9 9 9 9 9
7 7 8 9 6 4 3 3 2 3 2 4 3 8 10 4 4 7 8 8 9 9 9 9 10 8 5 6 8 9 9 9 8 8 8 9 14 19 22 25 26 28 29 30 32 33 34 35 36 36 38 40 41 41 40 40 41 42 42 42 42 42 42 42 42 42 41 39 38 37 36 36 34 33 32 30 29 27 24 22 21 19 18 18 17 17 16 16 14 13 12 11 10 10 10 11 10
Wind_Direction
345 332 301 296 305 271 9 55 78 348 69 85 340 55 220 221 205 173 27 305 52 344 305 53 48 64 92 116 140 138 114 146 162 146 207 238 33 234 234 238 229 217 204 187 172 164 160 155 151 142 132 126 125 121 122 122 120 118 113 112 115 115 114 110 106 100 97 100 106 103 96 94 92 88 86 82 79 78 77 77 77 74 65 56 52 49 47 45 42 38 35 38 43 47 52 58 65
342 324 309 295 344 27 239 67 94 348 56 81 297 170 240 326 124 175 192 217 143 168 89 84 74 63 74 106 118 92 62 343 177 186 231 155 70 235 220 194 194 199 199 192 178 166 165 163 155 144 134 129 127 126 126 126 123 121 118 118 120 121 117 114 108 99 97 102 110 111 103 97 95 93 89 84 80 78 76 77 77 74 64 55 52 50 47 45 42 39 39 42 45 47 49 52 59
338 314 318 229 31 43 78 48 93 75 75 123 262 243 280 357 183 196 205 172 149 162 125 80 77 61 67 77 56 74 82 323 129 251 275 146 167 209 183 144 152 178 189 190 181 170 172 169 160 152 141 135 134 132 131 130 128 128 126 121 121 125 122 117 111 102 100 102 105 113 110 101 99 97 93 88 82 76 76 80 79 72 61 54 52 50 47 44 42 42 45 47 49 51 52 55 63
327 322 329 193 99 28 60 44 121 117 110 174 229 258 258 189 189 207 230 207 195 183 150 58 58 3 88 94 41 91 116 297 348 328 212 172 183 188 187 161 157 177 185 188 182 177 176 173 168 160 151 143 141 138 134 131 131 134 134 129 123 125 126 118 112 106 102 100 101 109 110 105 103 98 96 91 84 77 77 80 79 71 59 53 52 50 46 43 41 43 49 51 54 58 60 65 70
314 342 348 146 103 43 90 73 107 100 166 179 159 254 248 201 196 209 252 261 237 204 180 94 82 297 71 94 159 110 220 271 329 326 131 177 174 182 191 174 171 179 185 190 185 182 181 179 177 169 161 151 148 143 136 132 132 137 140 138 131 128 128 120 111 109 105 101 100 103 107 107 107 102 98 93 86 79 77 78 76 66 57 55 52 48 44 42 41 44 52 55 58 65 70 74 77
306 86 35 75 88 117 105 93 112 97 205 171 150 241 234 205 206 195 248 327 54 154 167 99 135 156 60 2 47 117 260 296 319 318 74 173 177 180 186 178 180 184 185 191 190 186 186 186 184 178 169 160 155 150 143 136 134 138 144 144 140 137 134 128 118 113 109 105 102 102 107 113 114 109 104 97 88 82 81 81 74 62 58 56 51 46 45 44 43 44 52 58 61 71 79 81 85
156 175 31 64 48 38 96 120 148 161 191 174 179 203 206 213 209 162 139 33 52 25 64 103 140 113 69 302 59 42 12 352 294 40 59 148 179 176 180 181 184 189 189 192 193 190 192 192 191 187 176 169 161 156 155 145 142 142 148 149 145 144 140 136 127 122 117 112 111 106 106 114 117 115 112 104 94 88 89 87 75 64 60 56 50 47 48 48 47 47 50 57 62 72 83 88 92
80 157 21 79 35 26 92 105 158 180 154 212 225 191 197 211 193 143 118 122 130 2 64 151 107 90 39 21 108 286 36 34 58 99 82 81 172 170 177 184 185 190 190 193 194 193 196 194 196 195 184 178 168 163 164 154 151 148 153 156 149 149 145 141 137 133 128 122 118 109 104 110 115 117 119 113 104 97 97 91 77 69 62 56 52 51 53 52 51 51 53 56 61 68 80 88 93
55 42 63 79 76 41 59 43 118 218 260 249 239 222 220 199 178 130 110 63 181 101 89 232 351 89 181 65 325 273 31 66 93 112 110 100 155 164 174 183 184 187 188 193 195 195 198 197 199 199 191 187 180 175 169 162 160 153 156 160 155 151 148 148 146 142 137 133 129 119 108 108 113 117 120 118 112 106 103 96 84 76 65 58 54 55 56 56 56 56 57 58 61 65 72 79 85
37 26 129 74 83 61 37 39 238 244 260 252 238 239 223 182 168 109 115 127 135 80 288 231 67 93 140 117 242 288 71 121 122 122 116 116 137 159 172 177 181 186 185 188 192 199 204 199 198 199 196 196 191 185 178 170 166 162 159 162 161 154 152 155 153 151 146 142 140 130 115 108 112 116 121 121 119 117 111 103 93 81 69 62 59 59 59 59 60 61 61 62 63 65 68 72 76
34 356 101 74 77 104 177 188 250 251 273 300 285 251 218 175 138 77 79 114 79 87 178 83 86 128 104 93 252 203 150 158 154 135 117 124 135 156 167 172 179 183 184 189 189 197 207 202 198 200 198 200 199 191 189 178 171 170 166 166 165 160 159 160 161 161 156 152 147 138 127 117 118 120 123 125 126 128 121 114 101 87 75 66 63 62 62 62 64 66 67 67 67 67 69 71 71
94 337 65 84 123 168 191 165 219 252 303 318 218 256 199 151 134 130 135 124 99 95 135 18 152 139 84 320 263 222 172 171 169 139 124 141 143 148 159 168 174 176 180 187 187 187 196 203 199 200 200 199 199 194 195 185 179 179 172 173 170 167 167 167 170 170 168 164 156 149 145 137 133 131 131 131 133 138 135 131 113 95 82 68 65 65 66 65 66 70 72 71 71 69 70 71 70
121 146 86 92 148 146 149 144 211 275 318 255 195 259 130 144 170 172 149 109 81 115 34 297 152 109 95 248 275 280 205 172 163 142 142 156 153 147 152 161 163 170 171 170 181 180 177 187 184 187 204 204 202 197 197 192 188 186 180 182 177 174 176 175 177 176 178 174 168 162 159 158 149 147 145 139 141 149 150 142 123 103 84 70 67 69 71 68 67 71 73 73 73 72 71 71 69
131 155 103 105 98 113 139 134 220 159 238 249 226 269 125 154 181 163 135 102 292 164 336 311 133 111 114 213 295 265 203 169 158 155 156 156 160 157 155 158 160 171 175 168 178 180 173 181 172 175 196 199 205 205 197 195 192 190 186 186 183 183 186 184 181 180 184 180 180 175 170 170 162 163 157 150 151 155 157 147 130 114 90 73 69 72 76 72 71 72 72 72 71 71 71 70 68
126 137 84 106 86 84 155 166 165 153 218 225 196 218 91 60 139 137 143 133 232 246 339 350 84 152 186 169 236 229 176 166 161 162 160 156 161 161 160 164 166 172 184 191 189 192 190 204 205 196 207 202 207 209 196 194 193 194 191 188 186 189 193 191 188 183 184 185 185 183 179 175 168 171 168 163 157 155 165 157 141 127 103 82 72 76 83 77 75 74 72 70 69 68 68 67 66
109 111 69 92 125 145 177 177 122 129 238 218 218 194 94 340 112 122 236 138 139 336 11 359 17 332 185 177 237 170 155 162 162 163 157 152 155 159 159 162 170 171 177 188 193 198 191 196 204 194 201 202 196 190 186 193 196 196 193 191 189 192 194 193 192 186 187 189 186 187 184 180 177 176 173 172 168 167 173 168 157 142 120 99 83 84 91 85 80 77 73 69 66 65 64 65 65
61 78 66 81 146 181 183 176 165 165 233 238 258 205 117 275 335 124 288 70 105 16 24 296 330 6 184 212 198 142 152 161 161 161 153 148 149 152 158 160 168 172 175 182 186 193 189 191 196 175 185 199 193 178 183 195 195 190 190 194 194 197 196 194 194 190 191 190 188 190 185 183 186 183 178 177 177 177 179 181 176 158 139 118 99 97 100 93 86 80 74 68 65 62 61 64 65
55 81 90 118 168 186 177 181 194 173 194 207 215 170 132 170 255 156 59 39 62 52 22 345 345 1 343 167 141 147 157 162 162 160 152 149 150 148 154 162 168 174 180 187 188 193 194 197 206 194 191 203 199 182 187 200 198 184 186 196 193 195 191 189 193 193 195 192 191 192 186 188 190 189 185 182 183 183 182 184 186 177 153 132 114 109 109 101 92 83 76 70 65 60 58 60 62
83 109 93 179 200 197 189 181 191 184 179 179 183 153 147 177 174 139 175 328 34 99 346 351 353 328 287 138 133 151 158 162 166 163 156 155 159 156 156 163 171 177 181 189 193 195 196 199 204 203 202 206 206 195 191 202 203 186 191 203 199 194 186 186 193 196 197 194 193 190 186 190 191 193 189 185 187 186 185 184 190 189 160 142 130 120 120 111 98 85 78 71 65 60 59 58 60
123 110 85 225 213 217 217 188 201 221 167 146 161 156 161 210 165 148 181 177 229 200 212 204 248 238 216 218 145 147 156 161 168 167 161 162 165 167 167 171 178 183 188 193 197 200 200 202 202 200 200 201 208 208 198 198 198 191 192 201 210 202 189 189 196 202 201 195 194 194 195 189 186 196 193 191 195 189 184 183 188 194 177 159 142 134 136 124 107 91 81 70 61 62 66 63 63
96 101 146 213 177 169 221 197 210 212 155 144 139 118 151 237 179 154 145 140 266 244 215 195 206 204 192 210 173 150 154 156 166 169 164 164 168 173 177 181 188 194 202 205 206 208 206 204 205 203 201 198 200 203 200 195 190 188 188 201 215 207 194 192 197 206 201 197 197 195 199 188 185 201 196 198 206 193 181 181 186 198 196 170 147 143 147 143 128 110 99 83 67 75 78 71 68
66 42 193 196 144 133 222 199 192 149 122 108 116 140 171 189 143 155 152 172 233 234 228 215 204 186 176 181 169 152 152 155 162 168 167 168 171 176 182 187 197 206 217 223 219 215 211 206 206 205 202 199 197 196 195 190 182 186 197 204 205 197 195 192 188 191 188 190 194 194 198 191 191 198 191 191 198 184 178 184 188 196 197 174 155 151 152 158 150 134 130 117 97 95 87 77 73
94 331 292 217 187 182 207 189 190 141 114 126 157 180 131 113 280 191 173 209 229 256 261 225 193 165 159 154 157 154 154 162 166 171 172 172 175 179 187 195 204 216 225 229 219 212 213 206 203 203 198 195 196 194 191 186 182 191 198 196 191 190 196 192 181 181 186 185 179 186 197 194 190 191 186 178 170 165 172 183 184 189 191 175 166 162 164 170 163 149 148 138 123 110 94 84 76
90 142 307 242 204 205 196 154 175 138 137 183 170 118 135 173 224 130 208 239 261 324 329 145 139 140 144 143 155 162 162 167 169 175 177 179 183 184 191 200 209 221 226 222 208 204 212 206 200 197 195 193 193 193 190 188 188 191 193 188 183 184 188 192 190 183 186 182 173 186 195 190 185 184 178 168 165 164 167 173 173 177 179 176 177 177 176 175 164 153 159 151 135 121 105 93 73
71 148 240 245 226 256 224 99 142 149 147 163 121 141 215 193 178 253 239 241 59 55 78 107 120 125 139 148 159 162 162 168 168 172 177 180 183 185 192 203 214 216 209 209 202 199 208 205 196 192 191 190 191 191 189 187 185 187 193 186 175 175 178 184 189 181 178 177 176 186 189 186 180 176 169 161 166 162 161 167 168 169 170 172 179 182 182 172 159 158 164 155 133 121 111 100 74
164 153 201 212 323 311 309 160 216 195 170 119 132 224 268 239 209 274 244 202 142 100 93 107 122 129 148 157 170 168 165 172 171 171 174 177 183 191 196 203 211 195 187 199 192 190 195 195 187 183 185 185 185 184 183 180 179 181 185 174 162 165 169 169 174 174 177 180 179 180 181 182 174 170 166 160 163 158 158 166 161 161 162 162 170 173 174 166 157 157 158 147 128 116 106 103 101
161 142 172 137 321 302 184 201 249 222 240 177 174 227 275 329 271 252 249 171 148 112 109 128 134 151 172 169 181 176 177 180 175 173 172 178 186 193 197 199 197 183 186 194 179 173 171 169 167 170 176 179 179 178 178 176 175 176 174 162 153 156 157 157 161 163 169 174 174 176 174 175 170 165 162 156 158 156 155 156 148 148 147 145 154 156 153 153 150 149 144 136 123 109 102 102 106
109 131 194 334 339 299 200 231 262 165 236 187 166 217 280 357 240 232 232 167 154 134 143 166 158 176 185 181 190 182 188 187 181 181 181 189 193 195 201 200 194 188 188 184 172 165 162 160 159 165 172 174 174 174 173 172 171 174 176 171 165 164 160 158 161 160 162 165 165 167 166 166 166 161 156 153 152 149 146 144 141 142 138 135 139 143 142 142 142 139 131 124 113 103 103 104 105
76 68 287 308 356 333 257 250 228 169 196 183 149 287 282 223 222 247 233 158 139 137 162 185 186 197 198 194 195 191 197 189 188 195 196 199 199 200 205 201 195 191 185 178 170 165 164 161 161 165 170 171 173 173 170 168 167 168 172 171 165 165 164 161 163 163 160 162 158 156 157 158 159 156 152 151 149 147 144 141 139 135 132 131 132 135 135 135 135 128 121 118 112 111 114 111 110
21 49 45 313 1 333 278 39 152 161 175 182 153 279 268 242 243 259 173 154 135 150 188 200 201 206 205 204 199 204 203 193 198 203 203 203 201 200 201 195 193 189 181 178 172 169 169 164 163 166 167 169 171 173 171 168 164 163 166 164 157 158 163 162 162 159 153 155 156 152 154 154 152 153 151 149 147 147 145 141 136 130 128 129 129 131 131 129 127 119 117 122 121 123 120 116 114
33 27 39 2 360 282 289 10 133 153 182 159 136 239 268 267 269 259 181 168 156 180 206 206 211 212 208 210 207 214 211 203 208 208 205 205 199 196 196 190 187 186 180 178 176 173 171 165 165 167 167 167 166 168 169 167 163 164 169 167 160 159 164 165 159 155 150 153 155 151 152 153 152 155 156 154 151 149 147 142 136 131 130 134 132 132 133 131 130 124 125 128 124 122 118 114 114
36 325 310 345 181 270 303 291 161 157 273 43 134 221 275 273 279 277 178 175 175 194 212 212 218 216 211 216 212 219 225 217 218 214 208 204 199 195 196 190 183 186 184 182 181 174 170 167 168 169 169 167 164 165 165 165 161 160 164 159 154 155 158 158 153 152 155 156 157 154 153 154 156 158 158 158 154 150 148 140 134 131 132 135 131 127 126 124 125 124 123 127 124 119 116 113 113
359 87 246 267 175 274 315 308 222 179 114 340 195 230 279 277 296 323 164 176 189 209 226 222 222 221 215 218 216 218 224 225 227 218 207 201 199 197 196 191 185 188 188 189 185 176 173 170 170 171 169 166 165 166 166 165 158 155 158 151 147 150 152 151 152 158 159 158 161 160 157 156 155 154 154 155 154 148 144 137 131 131 132 129 124 119 115 113 116 118 115 119 122 119 116 113 112
316 9 238 241 194 207 296 308 284 140 129 219 224 233 252 260 292 357 178 182 188 217 232 227 224 225 222 218 219 219 215 221 223 212 203 198 198 197 197 193 188 190 193 194 188 180 178 172 170 173 170 168 169 167 164 161 155 152 155 151 149 153 154 152 156 160 158 158 161 159 155 153 150 150 152 154 151 145 140 136 132 132 132 127 121 114 109 110 111 111 110 114 119 118 117 114 114
198 197 205 262 255 213 248 284 254 145 147 224 198 236 256 265 272 225 202 191 191 220 232 231 230 226 226 222 218 218 215 221 217 203 199 197 196 196 196 194 191 193 194 193 187 182 179 172 170 173 170 167 167 163 160 160 155 152 151 149 150 152 153 152 154 158 156 157 159 155 152 149 149 151 152 152 148 143 138 134 132 131 131 126 119 112 107 107 107 106 109 115 118 117 116 115 115
163 176 161 209 251 256 231 251 257 185 160 233 213 228 248 260 268 250 213 192 203 233 242 241 236 227 226 224 221 216 217 224 209 196 196 196 195 195 194 192 192 193 192 188 186 182 177 171 168 169 168 164 163 159 158 157 151 147 146 147 147 146 148 152 154 158 156 156 156 153 152 150 152 153 151 150 145 141 136 133 132 130 129 125 118 111 105 105 106 108 112 118 120 118 117 117 117
128 133 147 208 224 268 253 248 284 212 161 244 224 228 250 251 262 262 214 175 216 238 243 242 233 227 225 222 221 216 218 217 191 192 197 195 195 195 192 191 191 190 188 187 185 181 177 173 169 169 168 164 163 162 159 157 152 149 147 146 146 143 147 153 154 155 155 154 153 153 151 150 152 151 149 148 144 140 135 132 131 128 127 123 116 110 107 106 107 113 118 121 123 122 119 118 120
98 128 190 263 222 252 258 238 293 272 171 262 244 234 258 252 255 264 204 170 222 227 228 237 231 227 228 223 223 216 209 183 175 192 197 194 196 194 191 190 188 186 185 185 184 181 178 175 174 175 174 167 164 164 162 159 158 159 155 151 148 144 147 152 152 152 152 150 150 149 149 148 149 148 147 147 143 138 134 131 129 126 125 120 114 110 109 108 109 117 124 123 123 122 121 126 130
119 125 171 264 247 274 281 272 315 27 178 268 291 260 266 260 251 255 233 212 229 226 222 232 228 226 228 221 220 210 196 180 181 192 193 194 195 193 193 189 187 188 185 185 184 181 178 175 176 176 175 169 164 163 163 161 159 160 157 154 151 148 148 150 149 149 149 148 147 147 146 147 147 145 144 142 138 134 132 129 126 123 120 118 116 113 112 111 111 115 122 123 121 117 114 126 142
199 171 171 244 249 269 278 291 326 333 196 271 305 297 276 268 257 248 241 232 244 244 233 239 234 229 231 221 214 206 197 192 187 189 190 192 193 192 194 190 186 187 184 183 182 180 178 177 177 174 172 172 169 167 166 163 158 156 154 153 154 152 149 149 147 146 148 147 144 143 142 142 142 140 138 136 134 132 130 127 123 121 119 119 119 116 112 109 108 108 111 118 120 115 105 98 106
243 204 195 219 227 217 231 287 329 336 344 4 338 308 276 264 258 250 258 268 267 258 244 250 245 236 239 231 218 209 200 192 185 187 187 188 191 192 193 190 187 186 184 183 182 180 179 180 178 175 175 176 174 172 169 163 158 154 151 148 148 147 146 147 146 144 145 144 141 140 138 138 137 136 135 134 133 131 128 126 125 124 122 120 117 113 110 106 105 104 102 106 108 112 109 98 89
272 229 204 213 219 225 239 322 4 356 323 345 23 308 274 279 269 255 285 322 272 255 240 246 247 237 233 232 223 207 197 194 187 186 186 186 188 188 190 191 189 189 187 185 184 183 182 184 181 178 179 179 176 174 171 166 162 160 158 153 149 145 144 148 148 146 145 143 141 140 138 138 137 136 134 134 134 132 130 129 128 126 122 119 115 111 110 107 105 102 99 99 98 106 114 109 101
267 244 205 210 209 216 230 200 75 260 263 293 67 231 271 300 285 251 253 267 262 259 250 249 250 238 225 229 223 201 191 187 185 187 185 185 185 184 189 193 192 191 188 185 185 185 184 186 184 181 181 180 178 176 172 170 167 167 169 166 161 155 151 151 150 149 146 144 142 142 140 139 138 137 136 136 136 134 133 131 128 125 121 118 115 112 111 108 106 104 101 100 100 102 107 109 110
240 249 182 186 189 200 207 179 191 231 265 312 17 161 270 287 276 263 249 257 270 270 261 257 251 237 229 231 221 203 194 185 182 186 184 187 188 186 189 192 192 190 187 185 186 186 186 187 187 186 184 182 181 179 176 174 172 172 171 168 165 161 158 154 150 148 147 146 145 143 142 141 140 140 140 138 137 135 133 130 128 125 121 118 117 113 111 109 107 108 107 105 105 104 100 103 110
245 215 135 149 162 170 161 146 192 286 12 298 288 128 264 268 265 316 342 251 267 268 260 260 254 239 230 230 222 206 197 189 185 184 185 189 190 190 190 189 189 188 187 186 187 189 189 188 189 191 189 186 185 182 178 177 176 177 176 170 164 161 158 155 152 149 149 148 147 145 144 143 142 142 141 139 137 135 133 131 128 124 122 120 118 114 112 111 109 110 110 109 109 108 104 101 103
210 130 97 76 80 82 82 112 133 45 344 252 240 162 241 267 236 266 4 225 251 262 261 263 261 247 232 227 221 205 193 188 188 187 188 190 191 190 188 186 186 187 187 187 187 190 191 189 189 191 193 190 186 182 179 179 180 180 179 174 166 161 157 155 153 151 151 151 149 147 146 146 145 144 142 140 138 137 134 131 128 125 124 122 118 114 112 112 110 111 110 109 108 106 106 104 102
135 106 69 47 36 42 45 56 82 28 273 243 221 187 200 266 253 197 212 211 227 247 265 278 284 273 246 228 215 198 187 184 185 186 186 188 189 188 185 184 184 186 187 187 187 189 191 191 190 190 192 189 185 183 182 183 184 182 181 177 171 165 160 158 157 155 154 154 151 149 149 148 147 146 144 143 141 139 136 134 131 128 126 123 118 113 111 111 111 110 109 108 105 102 104 103 103
113 90 80 65 349 9 20 358 47 237 258 247 231 191 188 239 260 229 241 250 238 231 245 266 275 274 256 231 213 193 184 181 177 179 178 176 179 183 184 184 184 185 186 187 188 188 189 191 190 188 189 189 187 186 186 186 184 182 181 179 175 169 165 163 161 159 158 157 154 153 152 151 150 149 148 146 144 143 140 138 135 132 129 123 117 113 111 111 110 110 109 108 106 104 104 102 104
105 103 108 104 325 350 346 312 63 231 259 276 350 120 199 240 252 250 258 262 254 235 228 240 253 262 258 231 209 190 180 180 178 178 177 175 178 181 183 184 184 185 187 188 189 187 187 190 191 189 189 191 190 189 187 187 185 183 181 179 176 172 169 167 165 163 162 161 159 157 156 155 154 153 152 150 147 147 145 141 139 135 130 122 116 113 113 112 112 113 114 113 111 110 111 109 110
160 147 143 143 152 256 270 270 274 263 271 294 3 158 246 267 257 238 238 245 252 250 237 234 238 247 252 230 198 188 186 184 183 182 182 185 185 183 184 185 185 186 188 189 189 188 187 188 191 191 191 191 191 189 188 187 186 185 183 180 176 173 171 170 168 166 165 164 163 161 159 158 157 155 154 152 151 150 148 145 142 137 130 123 118 116 116 117 120 122 122 122 122 123 124 122 118
185 153 141 161 161 171 218 221 233 260 286 300 288 200 202 208 249 240 235 251 269 272 265 253 248 247 247 228 191 188 193 189 187 189 190 191 187 185 185 185 186 187 188 188 189 189 188 188 190 192 191 190 189 189 189 188 187 185 184 180 178 176 175 173 172 170 168 167 165 163 161 160 158 157 156 154 153 153 151 148 145 139 130 124 120 121 124 128 134 136 136 137 135 133 136 137 135
225 118 120 190 183 170 215 209 179 194 303 293 231 222 217 210 268 268 253 270 272 269 278 271 264 261 220 207 200 194 197 193 192 192 192 191 188 187 186 186 187 187 187 188 189 190 189 189 191 192 192 190 190 190 190 189 188 186 184 182 179 178 177 175 174 173 171 169 167 165 163 162 161 159 158 157 156 155 154 151 147 139 131 127 127 131 136 142 147 150 149 149 145 143 151 154 153
167 138 175 207 170 150 199 267 61 80 274 268 199 239 285 313 282 269 243 255 265 273 273 258 261 268 211 218 208 200 202 195 196 196 191 188 186 188 189 187 187 187 187 189 191 192 192 191 191 191 191 191 190 191 191 190 189 188 186 183 181 181 180 179 177 175 173 171 169 167 166 165 164 163 161 159 159 158 157 154 148 142 137 136 140 145 152 155 158 160 158 158 157 158 166 168 166
128 178 199 161 85 99 127 253 346 42 258 272 218 238 275 273 272 302 181 236 255 261 255 255 267 255 231 232 211 205 207 195 198 197 190 190 187 189 190 189 190 189 189 190 192 194 194 194 193 191 191 190 190 191 192 192 191 189 187 185 184 184 182 181 179 177 175 172 171 170 169 169 168 166 164 162 162 162 160 157 152 147 145 148 153 158 163 165 166 168 167 169 174 174 178 180 178
130 182 182 124 131 209 121 176 236 208 251 284 285 259 251 207 227 293 194 217 236 250 255 263 264 247 237 231 209 206 202 190 197 195 190 191 189 190 189 189 191 191 191 192 192 194 194 195 195 193 193 192 191 192 192 193 193 190 189 187 186 186 184 183 181 179 177 175 174 173 172 172 171 169 167 165 165 165 163 160 157 154 154 157 163 166 168 171 172 175 178 182 186 186 190 194 193
60 109 146 111 153 176 162 166 174 173 233 285 312 300 249 212 205 200 215 221 218 235 252 254 252 250 243 219 203 206 200 194 198 194 193 190 188 191 190 189 191 191 193 192 192 194 194 194 194 192 193 191 191 193 192 192 193 191 190 189 188 188 186 186 184 182 180 178 176 175 176 176 174 172 170 168 168 168 166 164 163 163 163 165 169 171 173 176 177 181 187 191 195 196 201 207 208
153 158 170 182 105 104 163 200 133 137 174 227 289 288 264 227 194 195 212 218 207 217 232 238 250 259 244 199 198 206 205 203 200 192 191 187 185 189 191 191 192 192 193 193 192 194 194 194 193 192 191 190 191 192 193 194 194 193 193 191 190 190 189 189 187 185 183 181 179 179 179 179 177 175 173 171 171 170 169 170 170 169 169 171 174 176 178 181 182 185 191 195 201 204 211 218 219
177 184 188 185 171 145 170 239 204 133 180 186 195 275 271 236 186 201 206 206 207 215 220 237 263 268 237 206 200 202 204 203 200 190 185 184 183 186 188 190 191 192 193 193 194 194 194 194 194 193 193 192 192 193 194 195 195 196 196 194 192 192 191 191 189 187 186 183 182 183 183 183 181 178 176 175 174 173 173 175 174 173 175 177 180 182 184 185 186 189 193 198 205 211 218 223 223